Temp
-10 -10 -10 -11 -12 -12 -12 -12 -12 -12 -12 -12 -12 -12 -12 -12 -12 -12 -11 -11 -11 -12 -12 -12 -12 -12 -12 -12 -12 -12 -12 -12
-11 -10 -10 -11 -12 -12 -12 -12 -12 -12 -12 -12 -12 -12 -12 -12 -12 -12 -12 -12 -11 -11 -12 -12 -12 -12 -12 -12 -12 -12 -12 -12
-11 -11 -10 -11 -11 -11 -11 -11 -11 -11 -12 -12 -12 -12 -12 -12 -12 -12 -12 -12 -12 -12 -12 -12 -12 -12 -13 -13 -13 -13 -12 -13
-11 -11 -11 -11 -10 -11 -11 -11 -11 -11 -12 -12 -12 -12 -12 -12 -12 -12 -12 -12 -12 -12 -12 -13 -13 -13 -13 -13 -13 -13 -13 -12
-10 -11 -11 -11 -11 -11 -11 -11 -12 -11 -12 -12 -12 -12 -12 -12 -12 -12 -12 -12 -13 -13 -13 -13 -13 -13 -13 -13 -13 -13 -13 -13
-10 -11 -11 -12 -12 -12 -13 -12 -12 -12 -12 -12 -12 -12 -12 -12 -12 -12 -12 -12 -12 -12 -13 -13 -13 -13 -13 -13 -13 -13 -13 -13
-10 -10 -11 -11 -11 -12 -12 -12 -12 -12 -12 -12 -12 -12 -12 -12 -12 -12 -12 -12 -12 -13 -13 -13 -13 -13 -13 -13 -13 -13 -13 -13
-10 -11 -11 -11 -12 -12 -12 -12 -14 -14 -13 -13 -13 -13 -12 -12 -12 -12 -12 -12 -13 -13 -13 -13 -13 -13 -13 -13 -13 -13 -13 -13
-11 -11 -11 -11 -11 -11 -12 -13 -13 -14 -14 -14 -13 -13 -12 -12 -12 -13 -12 -13 -13 -13 -13 -13 -13 -13 -13 -13 -14 -13 -13 -13
-10 -10 -11 -11 -10 -11 -12 -12 -12 -13 -13 -13 -14 -13 -13 -13 -13 -13 -13 -13 -13 -13 -13 -14 -14 -14 -14 -13 -13 -13 -13 -13
-10 -10 -10 -11 -11 -11 -11 -12 -12 -13 -13 -14 -14 -13 -13 -14 -14 -13 -14 -14 -13 -14 -14 -14 -14 -13 -13 -13 -13 -13 -13 -13
-11 -11 -10 -11 -11 -11 -12 -12 -12 -13 -14 -14 -14 -13 -13 -14 -14 -14 -14 -14 -14 -14 -14 -14 -13 -13 -13 -13 -13 -13 -14 -14
-11 -11 -10 -11 -11 -11 -12 -12 -13 -13 -13 -13 -13 -13 -14 -14 -14 -13 -13 -14 -14 -14 -14 -14 -14 -13 -14 -14 -14 -14 -14 -14
-11 -11 -11 -11 -11 -11 -12 -12 -13 -13 -13 -14 -13 -13 -13 -13 -13 -14 -14 -14 -14 -14 -14 -14 -14 -14 -14 -14 -14 -14 -14 -14
-10 -11 -11 -11 -12 -12 -12 -12 -13 -13 -13 -13 -13 -13 -13 -14 -14 -14 -14 -14 -14 -14 -14 -14 -15 -15 -14 -14 -14 -15 -15 -15
-11 -12 -12 -13 -13 -12 -12 -12 -13 -13 -13 -13 -13 -13 -13 -13 -13 -13 -14 -14 -14 -15 -15 -15 -14 -14 -14 -15 -15 -15 -15 -15
-12 -12 -13 -13 -13 -13 -13 -13 -13 -13 -13 -14 -14 -14 -14 -14 -14 -14 -14 -15 -15 -15 -15 -15 -15 -15 -15 -15 -15 -15 -15 -16
-12 -12 -13 -13 -14 -13 -14 -14 -14 -14 -14 -14 -14 -15 -14 -14 -14 -14 -15 -15 -15 -15 -15 -15 -15 -15 -15 -15 -15 -16 -17 -17
-14 -14 -13 -14 -14 -14 -14 -14 -14 -14 -14 -14 -15 -15 -15 -15 -15 -15 -15 -15 -15 -16 -15 -15 -15 -15 -15 -16 -16 -17 -17 -17
Height
5783 5787 5792 5796 5797 5798 5800 5803 5805 5806 5808 5808 5809 5810 5812 5812 5813 5814 5815 5815 5815 5815 5814 5814 5814 5815 5814 5814 5814 5813 5813 5811
5773 5779 5784 5788 5791 5793 5793 5795 5797 5799 5801 5802 5802 5804 5806 5807 5808 5808 5808 5809 5809 5809 5809 5807 5808 5808 5807 5808 5808 5808 5807 5805
5764 5770 5775 5779 5783 5785 5786 5787 5791 5792 5794 5795 5797 5796 5799 5801 5802 5801 5800 5800 5801 5802 5801 5800 5801 5801 5801 5800 5800 5800 5799 5798
5756 5761 5765 5768 5773 5778 5780 5781 5781 5783 5785 5787 5790 5791 5792 5794 5794 5794 5794 5794 5794 5794 5793 5793 5793 5792 5792 5791 5791 5790 5790 5789
5747 5752 5755 5759 5762 5765 5769 5773 5773 5776 5778 5780 5782 5783 5785 5786 5785 5786 5787 5787 5787 5786 5785 5785 5785 5785 5783 5783 5783 5781 5780 5778
5739 5743 5748 5750 5753 5756 5759 5762 5764 5768 5770 5773 5774 5774 5776 5776 5776 5777 5779 5779 5779 5778 5778 5777 5776 5776 5775 5774 5772 5771 5769 5767
5730 5733 5737 5741 5743 5746 5748 5752 5756 5758 5760 5763 5765 5767 5766 5767 5768 5769 5769 5769 5769 5769 5768 5767 5766 5765 5764 5763 5761 5759 5757 5755
5720 5725 5729 5732 5735 5738 5738 5743 5745 5747 5750 5752 5753 5754 5757 5758 5758 5758 5759 5759 5759 5758 5758 5758 5756 5755 5753 5751 5749 5746 5743 5740
5711 5717 5720 5724 5728 5729 5730 5734 5737 5739 5740 5742 5743 5744 5745 5746 5748 5749 5749 5748 5748 5748 5748 5747 5745 5743 5741 5739 5736 5734 5730 5726
5700 5706 5712 5716 5720 5722 5723 5725 5727 5728 5729 5731 5732 5733 5735 5737 5738 5739 5739 5738 5737 5737 5736 5734 5733 5732 5730 5728 5725 5721 5718 5714
5690 5696 5702 5706 5709 5712 5714 5716 5718 5718 5720 5722 5723 5724 5726 5727 5727 5728 5728 5727 5727 5725 5725 5724 5722 5720 5718 5715 5712 5708 5703 5699
5682 5685 5690 5694 5698 5701 5703 5705 5707 5709 5710 5711 5712 5714 5716 5717 5718 5717 5717 5717 5715 5715 5714 5712 5710 5708 5704 5701 5697 5693 5689 5686
5672 5675 5678 5682 5686 5689 5691 5694 5697 5698 5700 5701 5703 5706 5706 5706 5707 5706 5706 5705 5705 5704 5703 5700 5697 5693 5691 5687 5683 5679 5675 5672
5664 5668 5670 5672 5675 5677 5680 5682 5685 5686 5689 5691 5695 5696 5696 5697 5696 5695 5696 5695 5694 5691 5690 5687 5684 5681 5677 5674 5670 5667 5662 5657
5654 5655 5658 5660 5664 5666 5669 5671 5673 5676 5679 5683 5684 5685 5685 5686 5686 5686 5684 5683 5682 5679 5677 5674 5671 5668 5665 5661 5658 5654 5649 5643
5644 5645 5647 5651 5654 5656 5658 5659 5662 5665 5669 5671 5672 5673 5674 5674 5674 5674 5673 5672 5670 5669 5666 5663 5660 5657 5653 5649 5644 5639 5634 5628
5634 5638 5637 5639 5643 5645 5646 5649 5653 5655 5658 5661 5662 5662 5663 5664 5664 5663 5661 5659 5658 5656 5654 5652 5648 5643 5639 5635 5631 5626 5619 5612
5618 5623 5625 5626 5630 5633 5636 5639 5641 5644 5646 5648 5650 5651 5652 5652 5651 5651 5649 5648 5646 5645 5642 5639 5634 5630 5625 5620 5615 5609 5602 5595
5602 5607 5611 5615 5618 5623 5627 5629 5631 5632 5634 5635 5637 5639 5639 5639 5639 5639 5639 5637 5636 5634 5630 5626 5622 5618 5612 5606 5599 5594 5587 5580
Wind_Speed
32 28 22 27 36 37 35 32 30 29 28 26 24 25 26 23 22 21 20 21 21 22 23 23 24 25 28 28 28 27 27 29
40 31 25 26 36 37 37 35 34 31 29 27 26 28 26 21 23 24 24 24 23 24 26 27 28 30 32 32 31 32 34 34
36 35 29 26 32 37 39 38 33 29 29 28 28 30 27 25 25 26 27 26 27 28 28 30 30 31 33 34 34 36 37 37
34 34 30 31 30 31 35 33 31 30 29 30 29 31 29 28 27 27 26 28 29 29 30 31 33 33 35 36 38 39 40 40
37 33 34 33 33 31 29 27 31 31 32 32 31 32 29 27 27 28 27 29 31 32 33 34 36 37 39 40 42 42 42 44
41 34 32 34 34 33 32 32 31 31 34 34 35 32 31 30 30 31 32 33 34 35 37 38 38 39 40 41 43 45 47 49
39 39 32 34 38 39 36 33 32 33 34 35 35 36 37 36 36 34 34 35 38 39 39 40 41 42 43 45 47 48 49 50
40 35 33 37 37 37 36 32 34 36 38 38 40 42 42 43 40 39 38 38 40 39 40 42 44 45 47 48 49 49 51 54
35 36 36 37 39 37 36 34 37 40 43 44 47 45 44 43 41 41 42 40 41 41 43 45 47 48 48 50 52 54 57 59
35 38 40 37 38 37 37 38 39 42 46 47 47 47 45 42 43 45 45 44 43 43 45 46 48 48 49 53 56 57 59 59
36 36 40 39 38 39 38 37 39 42 46 47 51 54 54 49 44 48 47 47 45 45 45 45 47 50 54 55 57 58 55 55
32 36 38 40 41 42 40 41 41 42 43 47 49 45 43 49 48 48 47 47 45 42 45 49 51 53 54 55 55 54 54 56
39 38 39 43 45 45 40 41 42 43 46 47 50 45 46 49 49 50 48 45 43 47 50 51 51 52 53 51 52 54 57 60
40 44 42 46 46 47 48 43 45 48 48 46 43 45 45 51 48 41 39 44 47 49 50 50 51 50 49 51 55 58 61 62
39 45 45 43 42 43 45 45 45 46 47 42 43 47 43 42 38 41 44 46 51 50 49 48 48 49 52 55 58 60 61 62
38 39 38 37 42 43 45 45 44 44 44 46 47 49 50 47 45 46 50 51 49 48 47 48 49 53 56 57 57 56 58 62
42 44 41 39 43 43 43 46 46 45 45 48 51 50 49 46 47 52 51 47 45 46 47 49 52 53 53 54 57 62 64 64
39 45 45 42 42 46 44 42 44 40 43 47 49 50 50 50 49 49 45 43 45 46 47 48 50 53 56 58 61 63 64 67
40 41 43 39 40 40 43 44 44 45 48 48 48 49 49 47 42 42 41 44 46 47 49 51 54 58 59 61 61 63 66 69
Wind_Direction
260 253 229 223 229 233 233 236 241 241 243 246 251 252 249 245 254 256 257 258 261 262 261 261 262 261 260 261 263 268 277 283
258 255 244 226 225 231 237 235 236 238 241 244 248 251 260 255 254 259 263 265 265 264 263 264 265 264 264 266 265 270 275 278
255 255 249 239 228 229 234 241 238 236 239 241 247 252 257 258 256 259 266 271 271 270 267 267 268 268 268 271 271 270 271 272
248 251 249 247 246 232 231 238 249 250 246 245 247 251 254 256 261 262 266 270 272 274 276 275 275 272 271 272 274 276 277 276
245 244 248 246 249 250 247 243 244 250 250 250 249 250 252 256 259 265 267 267 270 273 273 273 275 275 275 275 276 277 278 280
245 241 245 249 251 246 242 241 241 241 246 251 254 255 255 255 255 257 260 265 269 271 272 273 274 275 276 276 276 279 281 284
247 244 242 247 250 248 241 247 246 248 249 252 257 258 259 258 255 256 262 268 270 271 272 272 272 274 276 278 280 281 283 285
243 243 239 242 244 245 249 244 245 248 250 253 252 255 259 255 257 264 271 271 271 273 273 274 275 276 277 279 282 284 286 288
242 238 231 234 239 245 251 251 250 249 249 251 255 256 254 261 266 271 273 271 273 276 276 275 276 280 283 285 286 288 289 289
245 233 236 233 240 243 246 251 248 249 253 254 256 259 261 265 269 270 272 272 274 275 275 277 280 282 283 284 287 289 289 290
250 243 240 240 242 245 246 246 250 250 253 261 258 257 265 268 268 275 274 274 273 274 276 279 280 282 284 288 288 289 291 291
254 248 244 244 242 247 248 249 250 249 254 257 257 260 264 267 268 271 274 275 272 274 279 281 283 286 288 288 289 290 290 290
247 250 252 255 255 255 251 252 251 251 250 250 254 255 259 262 270 270 272 272 275 281 283 284 286 285 285 288 289 289 290 291
252 251 256 257 258 257 252 250 251 249 249 252 253 257 264 271 268 268 269 274 280 283 284 284 284 286 288 289 289 290 292 292
248 246 249 254 256 254 248 249 250 250 249 253 257 261 264 268 267 269 273 276 281 284 285 285 285 285 285 288 291 291 293 295
247 248 248 250 249 249 248 248 243 242 246 249 255 259 264 266 268 271 274 278 283 283 281 280 283 286 290 293 294 296 296 294
246 251 249 251 251 249 246 244 242 242 247 254 256 258 260 266 270 272 277 278 276 275 279 286 290 292 293 295 296 296 296 297
239 242 241 243 245 247 244 243 243 245 245 248 255 260 264 267 271 274 273 272 274 281 290 293 295 295 296 296 296 298 301 301
229 235 238 242 243 245 243 242 242 241 245 249 256 263 267 272 268 269 271 275 280 288 293 296 297 297 295 298 301 301 300 300